Hourly Data Report for November 01, 2017

All times are specified in Local Standard Time (LST). Add 1 hour to adjust for Daylight Saving Time where and when it is observed.

GREENWOOD A
NOVA SCOTIA

44°59'00.000" N
64°55'00.000" W
28.00 m
8202000
71397
YZX

Download Data

Hourly Data (November 2017)
Hourly Data Report for November 1, 2017
Temp Definition
°C
Dew Point Temp Definition
°C
Rel Hum Definition
%
Wind Dir Definition
10's deg

Wind Spd Definition
km/h
Visibility Definition
km
Stn Press Definition
kPa
Hmdx Definition


Wind Chill Definition


Weather Definition


TIME
00:00 6.2 3.9 85 28 6 24.1 101.51     Mainly Clear
01:00 5.3 3.4 88 25 7 24.1 101.60     Mainly Clear
02:00 7.6 1.9 67 28 19 24.1 101.74     Clear
03:00 8.4 0.9 59 25 13 24.1 101.86     Mainly Clear
04:00 7.2 0.9 64 20 7 24.1 101.95     Clear
05:00 6.2 1.3 71 20 4 24.1 102.07     Clear
06:00 5.9 0.9 70 22 4 24.1 102.16     Clear
07:00 4.9 0.5 73   0 24.1 102.27     Mostly Cloudy
08:00 2.9 0.3 83   0 24.1 102.38     Mostly Cloudy
09:00 7.1 0.8 64 24 6 24.1 102.48     Mainly Clear
10:00 10.0 1.6 56 31 11 24.1 102.51     Mainly Clear
11:00 9.9 1.0 54 35 4 24.1 102.55     Mainly Clear
12:00 10.7 1.3 52 30 11 24.1 102.54     Mainly Clear
13:00 11.4 1.7 51 27 17 24.1 102.53     Mostly Cloudy
14:00 11.0 1.9 53 32 11 24.1 102.57     Mostly Cloudy
15:00 10.5 2.0 56 28 7 24.1 102.62     Mostly Cloudy
16:00 9.8 2.4 60 29 9 24.1 102.69     Cloudy
17:00 9.5 2.5 62 28 6 24.1 102.71     Cloudy
18:00 8.0 2.4 68   0 24.1 102.74     Cloudy
19:00 6.3 2.6 77   0 24.1 102.81     Mostly Cloudy
20:00 4.9 2.5 84 9 4 24.1 102.87     Mostly Cloudy
21:00 3.8 2.0 88 6 4 24.1 102.92     Cloudy
22:00 2.8 1.4 90 36 4 24.1 102.97     Cloudy
23:00 3.1 2.0 92 10 7 24.1 102.92     Cloudy

Notes on Data Quality.

Legend

  • E = Estimated
  • M = Missing
  • NA = Not Available
  • ‡ = Partner data that is not subject to review by the National Climate Archives
Date modified: